GW4575 Weather Reports


Display with metric or nautical units.
time (UTC)temp
F
wind
direction
speed
MPH
gust
MPH
rain 1hr
in
rain 24hr
in
rain mn
in
humidity
%
barometer
mb
20260901143447 78 197 0.0 1.0 0.00 0.01 0.01 71 1015.8
20260901142944 77 197 1.0 3.0 0.00 0.01 0.01 72 1016.0
20260901142438 77 283 1.0 3.0 0.00 0.01 0.01 74 1016.0
20260901141933 77 282 2.0 2.0 0.00 0.01 0.01 73 1015.9
20260901141427 76 200 1.0 2.0 0.00 0.01 0.01 76 1016.0
20260901140922 76 218 1.0 2.0 0.00 0.01 0.01 75 1016.2
20260901140420 76 208 0.0 2.0 0.00 0.01 0.01 76 1016.2
20260901135915 76 261 2.0 2.0 0.00 0.01 0.01 76 1015.9
20260901135409 75 212 0.0 2.0 0.00 0.01 0.01 77 1016.1
20260901134905 75 234 1.0 1.0 0.00 0.01 0.01 78 1016.1
20260901134401 75 208 0.0 1.0 0.00 0.01 0.01 80 1016.3
20260901133901 74 208 1.0 1.0 0.00 0.01 0.01 79 1016.1
20260901133359 73 255 0.0 1.0 0.00 0.01 0.01 81 1016.3
20260901132858 73 273 1.0 1.0 0.00 0.01 0.01 82 1016.2
20260901132353 73 255 0.0 1.0 0.00 0.01 0.01 80 1016.2
20260901131853 73 255 0.0 2.0 0.00 0.01 0.01 81 1016.1
20260901131352 73 195 0.0 1.0 0.00 0.01 0.01 80 1016.0
20260901130848 72 202 0.0 1.0 0.00 0.01 0.01 83 1015.8
20260901130342 72 284 1.0 4.0 0.00 0.01 0.01 83 1016.0
20260901125840 72 198 1.0 2.0 0.00 0.01 0.01 83 1015.9
20260901125334 72 192 0.0 0.0 0.00 0.01 0.01 85 1015.9
20260901124829 71 200 0.0 1.0 0.00 0.01 0.01 87 1015.9
20260901124325 71 173 1.0 1.0 0.00 0.01 0.01 87 1015.9
20260901123824 70 209 0.0 1.0 0.00 0.01 0.01 90 1015.9
20260901123319 69 211 0.0 0.0 0.00 0.01 0.01 92 1015.9
20260901122818 68 202 0.0 0.0 0.00 0.01 0.01 94 1015.9
20260901122317 68 213 0.0 2.0 0.00 0.01 0.01 93 1016.1
20260901121816 67 219 0.0 0.0 0.00 0.01 0.01 94 1016.0
20260901121312 67 230 0.0 2.0 0.00 0.01 0.01 95 1015.7
20260901120807 66 193 0.0 0.0 0.00 0.01 0.01 98 1015.9
20260901120307 66 122 0.0 0.0 0.00 0.01 0.01 98 1015.7
20260901115802 66 76 1.0 1.0 0.00 0.01 0.01 98 1015.9
20260901115258 65 199 1.0 2.0 0.00 0.01 0.01 98 1015.7
20260901114755 66 74 0.0 0.0 0.00 0.01 0.01 97 1015.8
20260901114250 66 204 0.0 0.0 0.00 0.01 0.01 98 1015.7
20260901113749 65 205 0.0 0.0 0.00 0.01 0.01 98 1015.6
20260901113244 65 189 0.0 1.0 0.00 0.01 0.01 98 1015.4
20260901112744 66 178 0.0 2.0 0.00 0.01 0.01 97 1015.6
20260901112243 66 303 0.0 0.0 0.00 0.01 0.01 96 1015.3
20260901111738 66 234 0.0 1.0 0.00 0.01 0.01 96 1015.3
20260901111237 66 206 0.0 1.0 0.00 0.01 0.01 96 1015.3
20260901110731 66 219 0.0 0.0 0.00 0.01 0.01 96 1015.5
20260901110226 66 215 0.0 0.0 0.00 0.01 0.01 97 1015.2
20260901105723 65 201 0.0 1.0 0.00 0.01 0.01 97 1015.5
20260901105223 65 162 0.0 1.0 0.00 0.01 0.01 98 1015.4
20260901104719 64 121 1.0 2.0 0.00 0.01 0.01 99 1015.5
20260901104214 64 196 0.0 1.0 0.00 0.01 0.01 99 1015.4
20260901103713 64 146 0.0 0.0 0.00 0.01 0.01 99 1015.8
20260901103209 64 150 0.0 0.0 0.00 0.01 0.01 99 1015.5
20260901102704 65 80 1.0 2.0 0.00 0.01 0.01 98 1015.6
20260901102203 65 182 0.0 0.0 0.00 0.01 0.01 98 1015.6
20260901101659 65 80 0.0 1.0 0.00 0.01 0.01 98 1015.4
20260901101159 65 242 1.0 3.0 0.00 0.01 0.01 99 1015.5
20260901100653 64 208 0.0 0.0 0.00 0.01 0.01 99 1015.5
20260901100148 64 82 1.0 1.0 0.00 0.01 0.01 99 1015.7
20260901095647 64 78 1.0 2.0 0.00 0.01 0.01 99 1015.5
20260901095144 64 168 0.0 0.0 0.00 0.01 0.01 99 1015.6
20260901094638 64 198 0.0 0.0 0.00 0.01 0.01 99 1015.6
20260901094133 64 178 0.0 1.0 0.00 0.01 0.01 99 1015.6
20260901093628 64 234 0.0 0.0 0.00 0.01 0.01 99 1015.6
20260901093127 64 150 0.0 1.0 0.00 0.01 0.01 99 1015.4
20260901092623 64 191 0.0 0.0 0.00 0.01 0.01 99 1015.5
20260901092119 64 231 0.0 0.0 0.00 0.01 0.01 99 1015.6
20260901091615 64 235 0.0 0.0 0.00 0.01 0.01 99 1015.5
20260901091109 64 83 1.0 1.0 0.00 0.01 0.01 99 1015.6
20260901090609 64 159 0.0 0.0 0.07 0.01 0.01 99 1015.7
20260901090104 64 198 0.0 0.0 0.07 0.01 0.01 99 1015.7
20260901085600 64 169 0.0 0.0 0.00 0.00 0.00 99 1015.4
20260901085055 64 176 0.0 0.0 0.00 0.00 0.00 99 1015.7
20260901084552 64 167 0.0 0.0 0.00 0.00 0.00 99 1015.6
20260901084048 64 211 0.0 0.0 0.00 0.00 0.00 99 1015.9
20260901083542 64 146 0.0 0.0 0.00 0.00 0.00 99 1015.8
20260901083041 64 134 0.0 0.0 0.00 0.00 0.00 99 1015.6
20260901082535 65 87 0.0 0.0 0.00 0.00 0.00 99 1015.6
20260901082031 65 205 0.0 0.0 0.00 0.00 0.00 99 1015.8
20260901081526 65 208 0.0 0.0 0.00 0.00 0.00 99 1015.6
20260901081021 65 142 0.0 0.0 0.00 0.00 0.00 99 1015.5
20260901080520 65 205 0.0 0.0 0.00 0.00 0.00 99 1015.6
20260901080019 65 210 0.0 0.0 0.00 0.00 0.00 99 1015.7
20260901075515 65 180 0.0 0.0 0.00 0.00 0.00 99 1015.6
20260901075014 65 226 0.0 1.0 0.00 0.00 0.00 99 1015.6
20260901074514 65 181 0.0 0.0 0.00 0.00 0.00 99 1015.7
20260901074009 65 188 0.0 0.0 0.00 0.00 0.00 99 1015.5
20260901073506 65 183 0.0 1.0 0.00 0.00 0.00 99 1015.5
20260901073001 65 197 0.0 0.0 0.00 0.00 0.00 99 1015.6
20260901072456 65 108 0.0 0.0 0.00 0.00 0.00 99 1015.4
20260901071950 65 166 0.0 0.0 0.00 0.00 0.00 99 1015.5
20260901071449 65 205 0.0 0.0 0.00 0.00 0.00 99 1015.5
20260901070944 65 181 0.0 0.0 0.00 0.00 0.00 99 1015.2
20260901070439 65 191 0.0 0.0 0.00 0.00 0.00 99 1015.4
20260901065938 65 174 0.0 0.0 0.00 0.00 0.00 99 1015.4
20260901065434 65 201 0.0 0.0 0.00 0.00 0.00 99 1015.4
20260901064928 65 174 0.0 0.0 0.00 0.00 0.00 99 1015.5
20260901064424 66 186 0.0 0.0 0.00 0.00 0.00 99 1015.6
20260901063916 65 179 0.0 0.0 0.00 0.00 0.00 99 1015.6
20260901063412 66 193 0.0 0.0 0.00 0.00 0.00 99 1015.4
20260901062908 66 189 0.0 0.0 0.00 0.00 0.00 99 1015.5
20260901062403 66 179 0.0 1.0 0.00 0.00 0.00 99 1015.6
20260901061853 65 177 1.0 1.0 0.00 0.00 0.00 99 1015.6
20260901061348 66 187 1.0 1.0 0.00 0.00 0.00 99 1015.6
20260901060838 65 172 0.0 1.0 0.00 0.00 0.00 99 1015.8
20260901060334 65 181 0.0 0.0 0.00 0.00 0.00 99 1015.6
20260901055833 65 178 0.0 0.0 0.00 0.00 0.00 99 1015.8
20260901055330 66 190 0.0 0.0 0.00 0.00 0.00 99 1015.6
20260901054826 65 199 0.0 0.0 0.00 0.00 0.00 99 1015.8
20260901054323 65 199 0.0 0.0 0.00 0.00 0.00 99 1015.6
20260901053819 66 186 0.0 0.0 0.00 0.00 0.00 99 1015.5
20260901053313 65 180 0.0 0.0 0.00 0.00 0.00 99 1015.6
20260901052809 65 189 0.0 0.0 0.00 0.00 0.00 99 1015.6
20260901052307 65 190 0.0 0.0 0.00 0.00 0.00 99 1015.6
20260901051757 65 189 0.0 0.0 0.00 0.00 0.00 99 1015.7
20260901051252 66 186 0.0 0.0 0.00 0.00 0.00 99 1015.7
20260901050748 66 195 0.0 0.0 0.00 0.00 0.00 99 1015.7
20260901050243 65 164 0.0 0.0 0.00 0.00 0.00 99 1015.5
20260901045738 65 185 0.0 0.0 0.00 0.00 0.00 99 1015.5
20260901045232 66 195 0.0 0.0 0.00 0.00 0.00 99 1015.7
20260901044728 66 186 0.0 0.0 0.00 0.00 0.00 99 1015.6
20260901044224 66 189 0.0 0.0 0.00 0.00 0.00 99 1015.9
20260901043720 66 206 0.0 0.0 0.00 0.00 0.00 99 1015.7
20260901043215 66 186 0.0 1.0 0.00 0.00 0.00 99 1015.7
20260901042715 66 195 0.0 0.0 0.00 0.00 0.00 99 1015.7
20260901042209 66 194 0.0 0.0 0.00 0.00 0.00 99 1015.6
20260901041705 67 149 1.0 1.0 0.00 0.00 0.00 99 1015.7
20260901041204 67 223 0.0 0.0 0.00 0.00 0.00 99 1015.6
20260901040659 67 226 0.0 0.0 0.00 0.00 0.00 99 1015.6
20260901040153 67 217 0.0 0.0 0.00 0.00 0.00 99 1015.7
20260901035652 67 214 0.0 0.0 0.00 0.06 0.06 99 1015.5
20260901035150 68 240 0.0 0.0 0.00 0.06 0.06 99 1015.6
20260901034644 68 238 0.0 1.0 0.00 0.06 0.06 99 1015.6
20260901034139 68 240 0.0 0.0 0.00 0.06 0.06 99 1015.8
20260901033638 68 232 0.0 0.0 0.00 0.06 0.06 99 1015.6
20260901033138 68 234 0.0 0.0 0.00 0.06 0.06 99 1015.6
20260901032636 68 235 0.0 0.0 0.00 0.06 0.06 99 1015.6
20260901032131 68 285 1.0 2.0 0.00 0.06 0.06 99 1015.4
20260901031627 68 230 0.0 0.0 0.00 0.06 0.06 99 1015.6
20260901031123 68 220 0.0 0.0 0.00 0.06 0.06 99 1015.4
20260901030623 68 220 0.0 0.0 0.00 0.06 0.06 99 1015.6
20260901030117 68 242 0.0 1.0 0.00 0.06 0.06 99 1015.5
20260901025612 68 279 0.0 1.0 0.00 0.06 0.06 99 1015.6
20260901025107 68 244 0.0 0.0 0.00 0.06 0.06 99 1015.5
20260901024601 68 229 0.0 1.0 0.00 0.06 0.06 99 1015.4
20260901024100 69 250 0.0 2.0 0.00 0.06 0.06 99 1015.6
20260901023559 69 238 0.0 1.0 0.00 0.06 0.06 99 1015.5
20260901023054 69 225 0.0 0.0 0.00 0.06 0.06 99 1015.5
20260901022549 69 235 0.0 0.0 0.00 0.06 0.06 99 1015.5
20260901022044 69 257 1.0 1.0 0.00 0.06 0.06 99 1015.5
20260901021540 69 234 1.0 2.0 0.00 0.06 0.06 99 1015.5
20260901021035 69 250 1.0 1.0 0.00 0.06 0.06 99 1015.5
20260901020531 69 239 0.0 1.0 0.00 0.06 0.06 99 1015.6
20260901020026 70 231 0.0 2.0 0.00 0.06 0.06 99 1015.5
20260901015521 70 241 0.0 1.0 0.00 0.06 0.06 99 1015.3
20260901015021 70 238 1.0 1.0 0.00 0.06 0.06 99 1015.4
20260901014516 70 211 0.0 1.0 0.00 0.06 0.06 99 1015.5
20260901014013 70 260 1.0 2.0 0.00 0.06 0.06 99 1015.4
20260901013508 70 242 0.0 1.0 0.00 0.06 0.06 99 1015.5
20260901013004 70 236 1.0 1.0 0.00 0.06 0.06 99 1015.3
20260901012503 70 223 0.0 1.0 0.00 0.06 0.06 99 1015.3
20260901011958 71 235 0.0 2.0 0.00 0.06 0.06 99 1015.1
20260901011455 71 257 0.0 3.0 0.00 0.06 0.06 99 1015.0
20260901010952 71 227 0.0 1.0 0.00 0.06 0.06 99 1015.0
20260901010448 71 238 0.0 2.0 0.00 0.06 0.06 99 1015.0
20260901005947 71 255 0.0 1.0 0.00 0.06 0.06 99 1014.9
20260901005442 71 246 0.0 1.0 0.00 0.06 0.06 99 1014.9
20260901004937 71 237 0.0 0.0 0.00 0.06 0.06 99 1014.9
20260901004436 71 263 0.0 1.0 0.00 0.06 0.06 99 1014.9
20260901003931 71 240 0.0 0.0 0.00 0.06 0.06 99 1014.9
20260901003426 71 241 0.0 1.0 0.00 0.06 0.06 99 1015.0
20260901002925 71 248 1.0 2.0 0.00 0.06 0.06 99 1014.9
20260901002424 71 234 0.0 0.0 0.00 0.06 0.06 99 1014.9
20260901001919 71 265 1.0 3.0 0.00 0.06 0.06 99 1014.9
20260901001415 71 253 1.0 2.0 0.00 0.06 0.06 99 1015.0
20260901000910 71 248 1.0 2.0 0.00 0.06 0.06 99 1014.7
20260901000406 72 278 1.0 2.0 0.00 0.06 0.06 99 1014.7
20260831235903 72 257 1.0 2.0 0.00 0.06 0.06 99 1014.7
20260831235400 72 238 0.0 2.0 0.00 0.06 0.06 99 1014.9
20260831234900 72 244 0.0 0.0 0.00 0.06 0.06 98 1014.9
20260831234354 71 244 0.0 0.0 0.00 0.06 0.06 98 1014.7
20260831233850 72 216 0.0 0.0 0.00 0.06 0.06 98 1014.5
20260831233345 72 222 0.0 0.0 0.00 0.06 0.06 98 1014.6
20260831232840 71 199 0.0 0.0 0.00 0.06 0.06 98 1014.6
20260831232336 71 214 0.0 1.0 0.00 0.06 0.06 98 1014.6
20260831231832 71 208 0.0 1.0 0.00 0.06 0.06 98 1014.4
20260831231328 71 183 0.0 1.0 0.00 0.06 0.06 98 1014.7
20260831230824 71 180 0.0 1.0 0.00 0.06 0.06 98 1014.5
20260831230318 71 169 1.0 2.0 0.00 0.06 0.06 99 1014.5
20260831225818 71 178 1.0 1.0 0.00 0.06 0.06 98 1014.4
20260831225313 71 183 0.0 1.0 0.00 0.06 0.06 99 1014.6
20260831224809 71 193 1.0 2.0 0.00 0.06 0.06 99 1014.4
20260831224303 71 184 1.0 2.0 0.00 0.06 0.06 99 1014.5
20260831223758 71 190 0.0 1.0 0.00 0.06 0.06 99 1014.5
20260831223254 71 235 0.0 0.0 0.00 0.06 0.06 98 1014.5
20260831222751 71 227 0.0 0.0 0.00 0.06 0.06 98 1014.6
20260831222246 71 219 0.0 0.0 0.00 0.06 0.06 98 1014.5
20260831221741 71 244 0.0 2.0 0.00 0.06 0.06 98 1014.5
20260831221236 71 208 0.0 1.0 0.00 0.06 0.06 98 1014.5
20260831220732 72 244 0.0 1.0 0.00 0.06 0.06 97 1014.3
20260831220226 72 191 1.0 2.0 0.00 0.06 0.06 97 1014.3
20260831215721 72 157 0.0 2.0 0.00 0.06 0.06 95 1014.3
20260831215217 72 166 0.0 2.0 0.00 0.06 0.06 95 1014.4
20260831214714 72 166 1.0 2.0 0.00 0.06 0.06 94 1014.2
20260831214211 72 190 0.0 1.0 0.00 0.06 0.06 95 1014.4
20260831213706 73 185 0.0 1.0 0.00 0.06 0.06 94 1014.3
20260831213202 73 176 1.0 1.0 0.00 0.06 0.06 94 1014.3
20260831212657 73 176 1.0 1.0 0.00 0.06 0.06 94 1014.0
20260831212154 73 180 0.0 1.0 0.00 0.06 0.06 94 1014.2
20260831211652 73 203 0.0 0.0 0.00 0.06 0.06 94 1014.0
20260831211148 73 182 0.0 1.0 0.00 0.06 0.06 94 1014.0
20260831210647 73 182 1.0 3.0 0.00 0.06 0.06 94 1013.8
20260831210143 73 84 3.0 3.0 0.00 0.06 0.06 94 1013.8
20260831205642 73 110 1.0 2.0 0.00 0.06 0.06 94 1014.0
20260831205139 73 169 2.0 6.0 0.00 0.06 0.06 94 1014.1
20260831204638 73 169 1.0 2.0 0.00 0.06 0.06 93 1013.8
20260831204137 73 132 1.0 1.0 0.00 0.06 0.06 93 1013.8
20260831203632 74 189 1.0 2.0 0.00 0.06 0.06 93 1013.7
20260831203131 74 99 1.0 2.0 0.00 0.06 0.06 93 1013.6
20260831202630 74 141 3.0 3.0 0.00 0.06 0.06 93 1013.5
20260831202125 74 167 1.0 3.0 0.00 0.06 0.06 93 1013.5
20260831201624 74 178 1.0 3.0 0.00 0.06 0.06 93 1013.5
20260831201119 74 193 2.0 3.0 0.00 0.06 0.06 93 1013.7
20260831200616 74 183 2.0 3.0 0.00 0.06 0.06 92 1013.6
20260831200115 74 121 2.0 6.0 0.00 0.06 0.06 93 1013.8
20260831195606 74 160 5.0 7.0 0.00 0.06 0.06 92 1013.7
20260831195101 74 181 1.0 2.0 0.00 0.06 0.06 93 1013.8
20260831194555 74 162 1.0 3.0 0.00 0.06 0.06 92 1013.8
20260831194055 74 142 3.0 4.0 0.00 0.06 0.06 91 1014.1
20260831193551 75 169 3.0 4.0 0.00 0.06 0.06 90 1013.7
20260831193051 75 167 3.0 6.0 0.00 0.06 0.06 90 1013.9
20260831192546 75 168 2.0 4.0 0.00 0.06 0.06 90 1013.8
20260831192041 75 91 4.0 7.0 0.00 0.06 0.06 91 1013.8
20260831191537 74 174 2.0 3.0 0.00 0.06 0.06 92 1014.1
20260831191033 74 142 1.0 2.0 0.00 0.06 0.06 91 1013.9
20260831190528 75 191 1.0 3.0 0.00 0.06 0.06 91 1014.0
20260831190027 74 182 2.0 6.0 0.00 0.06 0.06 91 1014.2
20260831185523 75 168 2.0 3.0 0.00 0.06 0.06 90 1014.3
20260831185018 75 88 2.0 6.0 0.00 0.06 0.06 91 1014.3
20260831184513 74 99 4.0 4.0 0.00 0.06 0.06 90 1014.3
20260831184008 74 195 2.0 3.0 0.00 0.06 0.06 91 1014.3
20260831183507 73 186 2.0 3.0 0.00 0.06 0.06 92 1014.2
20260831183006 73 72 3.0 4.0 0.00 0.06 0.06 92 1014.2
20260831182501 73 152 2.0 3.0 0.00 0.06 0.06 93 1014.3
20260831181957 74 154 3.0 4.0 0.00 0.06 0.06 92 1014.4
20260831181452 73 141 2.0 7.0 0.00 0.06 0.06 93 1014.2
20260831180953 73 212 3.0 4.0 0.00 0.06 0.06 93 1014.3
20260831180447 73 109 1.0 3.0 0.00 0.06 0.06 93 1014.3
20260831175946 72 210 2.0 8.0 0.00 0.06 0.06 94 1014.2
20260831175443 72 175 3.0 4.0 0.00 0.06 0.06 94 1014.3
20260831174938 72 127 4.0 7.0 0.00 0.06 0.06 93 1014.3
20260831174433 72 128 3.0 6.0 0.00 0.06 0.06 93 1014.4
20260831173933 72 21 2.0 6.0 0.00 0.06 0.06 93 1014.2
20260831173432 72 159 3.0 6.0 0.00 0.06 0.06 94 1014.0
20260831172928 72 79 2.0 4.0 0.00 0.06 0.06 94 1014.2
20260831172424 72 174 2.0 4.0 0.00 0.06 0.06 94 1014.2
20260831171923 72 57 3.0 8.0 0.00 0.06 0.06 93 1014.2
20260831171419 71 129 4.0 4.0 0.00 0.06 0.06 94 1014.1
20260831170916 71 153 3.0 4.0 0.00 0.06 0.06 94 1014.2
20260831170412 71 159 3.0 8.0 0.00 0.06 0.06 94 1014.3
20260831165908 71 167 3.0 6.0 0.00 0.06 0.06 94 1014.3
20260831165404 71 158 3.0 6.0 0.00 0.06 0.06 94 1014.4
20260831164900 71 166 2.0 4.0 0.00 0.06 0.06 94 1014.4
20260831164356 71 203 2.0 2.0 0.00 0.06 0.06 94 1014.5
20260831163851 71 166 2.0 3.0 0.00 0.06 0.06 94 1014.7
20260831163347 71 128 2.0 3.0 0.00 0.06 0.06 94 1014.4
20260831162845 70 137 4.0 4.0 0.00 0.06 0.06 96 1014.5
20260831162341 69 111 5.0 7.0 0.00 0.06 0.06 96 1014.5
20260831161839 70 121 2.0 6.0 0.00 0.06 0.06 96 1014.6
20260831161336 69 99 4.0 6.0 0.00 0.06 0.06 97 1014.4
20260831160831 69 104 4.0 7.0 0.00 0.06 0.06 97 1014.4
20260831160326 69 174 5.0 7.0 0.00 0.06 0.06 97 1014.5
20260831155821 69 149 6.0 9.0 0.00 0.06 0.06 97 1014.5
20260831155320 69 210 2.0 8.0 0.00 0.06 0.06 98 1014.4
20260831154816 69 144 2.0 6.0 0.00 0.06 0.06 98 1014.4
20260831154313 69 166 3.0 6.0 0.00 0.06 0.06 98 1014.5
20260831153811 68 160 3.0 4.0 0.00 0.06 0.06 99 1014.4
20260831153307 68 93 4.0 4.0 0.00 0.06 0.06 99 1014.4
20260831152803 68 129 7.0 7.0 0.00 0.06 0.06 99 1014.2
20260831152258 67 97 4.0 4.0 0.00 0.06 0.06 99 1014.3
20260831151753 67 129 2.0 4.0 0.00 0.06 0.06 99 1014.3
20260831151252 67 129 3.0 6.0 0.00 0.06 0.06 99 1014.4
20260831150747 67 208 3.0 7.0 0.00 0.06 0.06 99 1014.5
20260831150243 67 162 4.0 8.0 0.00 0.06 0.06 99 1014.6
20260831145742 67 159 3.0 4.0 0.00 0.06 0.06 99 1014.6
20260831145238 67 147 4.0 7.0 0.00 0.06 0.06 99 1014.3
20260831144734 67 77 2.0 6.0 0.00 0.06 0.06 99 1014.2
20260831144230 66 197 4.0 4.0 0.00 0.06 0.06 99 1014.3